time, Switch, Flow(0), Analog(2)
yyyy/mm/dd HH:MM:SS.fff, True=FILTERED|False=TOTAL, L/min, V
2023/06/19 10:00:02.544, True, 4.717, 0.133593
2023/06/19 10:00:03.047, True, 4.311, 0.132982
2023/06/19 10:00:03.552, True, 3.979, 0.130541
2023/06/19 10:00:04.048, True, 3.033, 0.130846
2023/06/19 10:00:04.552, True, 2.653, 0.130846
2023/06/19 10:00:05.048, True, 2.360, 0.133822
2023/06/19 10:00:05.552, True, 2.322, 0.130007
2023/06/19 10:00:06.056, True, 2.319, 0.130846
2023/06/19 10:00:06.552, True, 2.358, 0.130694
2023/06/19 10:00:07.056, True, 2.321, 0.132067
2023/06/19 10:00:07.560, True, 2.321, 0.131609
2023/06/19 10:00:08.056, True, 2.359, 0.133593
2023/06/19 10:00:08.560, True, 2.321, 0.131914
2023/06/19 10:00:09.063, True, 2.321, 0.131380
2023/06/19 10:00:09.568, True, 2.323, 0.133364
2023/06/19 10:00:10.064, True, 2.356, 0.132296
2023/06/19 10:00:10.568, True, 2.321, 0.131228
2023/06/19 10:00:11.072, True, 2.322, 0.132525
2023/06/19 10:00:11.568, True, 2.360, 0.133440
2023/06/19 10:00:12.071, True, 2.319, 0.132296
2023/06/19 10:00:12.576, True, 2.321, 0.130388
2023/06/19 10:00:13.072, True, 2.359, 0.131304
2023/06/19 10:00:13.576, True, 2.321, 0.132677
2023/06/19 10:00:14.079, True, 2.323, 0.130617
2023/06/19 10:00:14.576, True, 2.358, 0.131304
2023/06/19 10:00:15.080, True, 2.320, 0.132296
2023/06/19 10:00:15.576, True, 2.359, 0.131991
2023/06/19 10:00:16.079, True, 2.320, 0.131075
2023/06/19 10:00:16.584, True, 2.321, 0.130465
2023/06/19 10:00:17.080, True, 2.022, 0.133974
2023/06/19 10:00:17.584, True, 2.321, 0.131456
2023/06/19 10:00:18.088, True, 2.325, 0.132830
2023/06/19 10:00:18.584, True, 2.355, 0.132067
2023/06/19 10:00:19.088, True, 2.323, 0.131151
2023/06/19 10:00:19.592, True, 2.319, 0.130999
2023/06/19 10:00:20.088, True, 2.360, 0.131456
2023/06/19 10:00:20.592, True, 2.320, 0.129244
2023/06/19 10:00:21.088, True, 2.364, 0.129931
2023/06/19 10:00:21.592, True, 2.317, 0.133211
2023/06/19 10:00:22.096, True, 2.321, 0.131838
2023/06/19 10:00:22.599, True, 2.323, 0.132982
2023/06/19 10:00:23.096, True, 2.020, 0.132067
2023/06/19 10:00:23.600, True, 2.324, 0.134813
2023/06/19 10:00:24.104, True, 2.318, 0.131991
2023/06/19 10:00:24.599, True, 2.359, 0.132906
2023/06/19 10:00:25.104, True, 2.653, 0.133059
2023/06/19 10:00:25.608, True, 2.321, 0.131304
2023/06/19 10:00:26.104, True, 2.359, 0.133288
2023/06/19 10:00:26.608, True, 2.321, 0.131380
2023/06/19 10:00:27.112, True, 2.322, 0.132372
2023/06/19 10:00:27.608, True, 2.360, 0.131228
2023/06/19 10:00:28.112, True, 2.321, 0.134279
2023/06/19 10:00:28.616, True, 2.320, 0.133059
2023/06/19 10:00:29.112, True, 2.696, 0.133059
2023/06/19 10:00:29.616, True, 2.321, 0.132525
2023/06/19 10:00:30.120, True, 2.321, 0.133135
2023/06/19 10:00:30.616, True, 2.359, 0.132143
2023/06/19 10:00:31.120, True, 2.321, 0.134508
2023/06/19 10:00:31.624, True, 2.321, 0.131685
2023/06/19 10:00:32.120, True, 2.359, 0.133288
2023/06/19 10:00:32.624, True, 1.989, 0.133440
2023/06/19 10:00:33.128, True, 2.322, 0.133135
2023/06/19 10:00:33.624, True, 2.358, 0.133822
2023/06/19 10:00:34.128, True, 2.321, 0.135500
2023/06/19 10:00:34.632, True, 2.321, 0.135500
2023/06/19 10:00:35.128, True, 2.359, 0.135348
2023/06/19 10:00:35.631, True, 2.325, 0.134737
2023/06/19 10:00:36.135, True, 2.317, 0.134661
2023/06/19 10:00:36.632, True, 2.359, 0.138857
2023/06/19 10:00:37.135, True, 1.990, 0.139239
2023/06/19 10:00:37.632, True, 2.363, 0.140764
2023/06/19 10:00:38.136, True, 2.316, 0.139696
2023/06/19 10:00:38.639, True, 2.321, 0.139544
2023/06/19 10:00:39.135, True, 2.022, 0.139849
2023/06/19 10:00:39.639, True, 2.321, 0.139467
2023/06/19 10:00:40.144, True, 2.321, 0.139925
2023/06/19 10:00:40.647, True, 2.653, 0.139391
2023/06/19 10:00:41.144, True, 2.024, 0.140078
2023/06/19 10:00:41.648, True, 2.650, 0.141604
2023/06/19 10:00:42.152, True, 2.325, 0.140383
2023/06/19 10:00:42.647, True, 2.354, 0.141451
2023/06/19 10:00:43.152, True, 2.321, 0.140383
2023/06/19 10:00:43.648, True, 2.022, 0.143359
2023/06/19 10:00:44.152, True, 2.658, 0.140612
2023/06/19 10:00:44.656, True, 2.317, 0.140612
2023/06/19 10:00:45.151, True, 2.359, 0.140688
2023/06/19 10:00:45.656, True, 2.324, 0.141299
2023/06/19 10:00:46.160, True, 2.319, 0.141299
2023/06/19 10:00:46.664, True, 2.322, 0.142214
2023/06/19 10:00:47.160, True, 2.359, 0.140841
2023/06/19 10:00:47.663, True, 2.321, 0.141375
2023/06/19 10:00:48.168, True, 2.322, 0.141527
2023/06/19 10:00:48.663, True, 2.358, 0.140841
2023/06/19 10:00:49.168, True, 2.322, 0.140993
2023/06/19 10:00:49.672, True, 2.320, 0.141909
2023/06/19 10:00:50.168, True, 2.358, 0.139925
2023/06/19 10:00:50.672, True, 2.323, 0.140459
2023/06/19 10:00:51.176, True, 2.321, 0.141451
2023/06/19 10:00:51.672, True, 2.357, 0.141222
2023/06/19 10:00:52.176, True, 2.324, 0.142214
2023/06/19 10:00:52.680, True, 2.319, 0.139696
2023/06/19 10:00:53.176, True, 2.361, 0.142596
2023/06/19 10:00:53.680, True, 1.988, 0.140536
2023/06/19 10:00:54.184, True, 2.321, 0.140612
2023/06/19 10:00:54.680, True, 2.359, 0.144961
2023/06/19 10:00:55.184, True, 2.325, 0.141070
2023/06/19 10:00:55.688, True, 2.317, 0.143053
2023/06/19 10:00:56.192, True, 2.653, 0.141527
2023/06/19 10:00:56.688, True, 2.359, 0.142443
2023/06/19 10:00:57.192, True, 2.321, 0.141146
2023/06/19 10:00:57.696, True, 2.321, 0.139544
2023/06/19 10:00:58.192, True, 2.359, 0.141833
2023/06/19 10:00:58.696, True, 2.321, 0.139086
2023/06/19 10:00:59.199, True, 2.321, 0.142138
2023/06/19 10:00:59.696, True, 2.022, 0.140459
2023/06/19 10:01:00.200, True, 2.321, 0.140459
2023/06/19 10:01:00.704, True, 2.326, 0.143282
2023/06/19 10:01:01.208, True, 2.317, 0.141451
2023/06/19 10:01:01.704, True, 2.358, 0.143587
2023/06/19 10:01:02.208, True, 2.653, 0.141680
2023/06/19 10:01:02.704, True, 2.021, 0.139620
2023/06/19 10:01:03.208, True, 2.321, 0.142061
2023/06/19 10:01:03.712, True, 2.321, 0.143130
2023/06/19 10:01:04.216, True, 2.653, 0.140383
2023/06/19 10:01:04.711, True, 2.363, 0.138552
2023/06/19 10:01:05.216, True, 2.317, 0.143587
2023/06/19 10:01:05.720, True, 2.321, 0.140230
2023/06/19 10:01:06.216, True, 2.359, 0.141222
2023/06/19 10:01:06.720, True, 2.321, 0.143053
2023/06/19 10:01:07.224, True, 2.321, 0.139391
2023/06/19 10:01:07.720, True, 2.022, 0.140230
2023/06/19 10:01:08.224, True, 2.321, 0.140917
2023/06/19 10:01:08.728, True, 2.322, 0.142596
2023/06/19 10:01:09.224, True, 2.695, 0.140917
2023/06/19 10:01:09.728, True, 2.321, 0.140230
2023/06/19 10:01:10.232, True, 2.321, 0.143206
2023/06/19 10:01:10.728, True, 2.359, 0.142443
2023/06/19 10:01:11.232, True, 2.321, 0.138781
2023/06/19 10:01:11.736, True, 2.321, 0.140841
2023/06/19 10:01:12.232, True, 2.359, 0.140917
2023/06/19 10:01:12.736, True, 2.321, 0.140993
2023/06/19 10:01:13.240, True, 2.321, 0.140612
2023/06/19 10:01:13.736, True, 2.358, 0.142824
2023/06/19 10:01:14.240, True, 2.322, 0.140459
2023/06/19 10:01:14.736, True, 2.358, 0.140841
2023/06/19 10:01:15.240, True, 2.321, 0.138857
2023/06/19 10:01:15.744, True, 2.653, 0.143130
2023/06/19 10:01:16.240, True, 2.359, 0.139696
2023/06/19 10:01:16.744, True, 2.321, 0.140459
2023/06/19 10:01:17.248, True, 2.321, 0.142367
2023/06/19 10:01:17.744, True, 2.359, 0.141756
2023/06/19 10:01:18.247, True, 1.992, 0.140841
2023/06/19 10:01:18.752, True, 2.318, 0.140688
2023/06/19 10:01:19.247, True, 2.359, 0.139391
2023/06/19 10:01:19.751, True, 2.321, 0.140993
2023/06/19 10:01:20.256, True, 2.322, 0.142214
2023/06/19 10:01:20.752, True, 2.022, 0.142367
2023/06/19 10:01:21.256, True, 2.656, 0.141299
2023/06/19 10:01:21.760, True, 2.319, 0.139315
2023/06/19 10:01:22.256, True, 2.358, 0.139315
2023/06/19 10:01:22.759, True, 2.321, 0.138628
2023/06/19 10:01:23.264, True, 2.322, 0.140841
2023/06/19 10:01:23.760, True, 2.023, 0.139696
2023/06/19 10:01:24.263, True, 2.650, 0.142367
2023/06/19 10:01:24.768, True, 1.991, 0.137865
2023/06/19 10:01:25.264, True, 2.357, 0.141222
2023/06/19 10:01:25.767, True, 2.323, 0.140459
2023/06/19 10:01:26.272, True, 2.319, 0.138323
2023/06/19 10:01:26.768, True, 2.695, 0.140154
2023/06/19 10:01:27.271, True, 2.321, 0.138170
2023/06/19 10:01:27.776, True, 2.324, 0.139315
2023/06/19 10:01:28.272, True, 2.356, 0.138247
2023/06/19 10:01:28.775, True, 2.322, 0.138705
2023/06/19 10:01:29.280, True, 1.990, 0.140078
2023/06/19 10:01:29.776, True, 2.359, 0.140078
2023/06/19 10:01:30.280, True, 2.319, 0.138552
2023/06/19 10:01:30.784, True, 2.321, 0.140688
2023/06/19 10:01:31.280, True, 2.359, 0.140536
2023/06/19 10:01:31.783, True, 2.321, 0.139315
2023/06/19 10:01:32.288, True, 2.322, 0.137942
2023/06/19 10:01:32.784, True, 2.358, 0.140002
2023/06/19 10:01:33.288, True, 2.321, 0.138094
2023/06/19 10:01:33.792, True, 2.322, 0.139849
2023/06/19 10:01:34.288, True, 2.358, 0.137789
2023/06/19 10:01:34.792, True, 2.321, 0.139010
2023/06/19 10:01:35.295, True, 2.322, 0.140078
2023/06/19 10:01:35.792, True, 2.359, 0.139391
2023/06/19 10:01:36.296, True, 2.320, 0.138018
2023/06/19 10:01:36.792, True, 2.022, 0.139620
2023/06/19 10:01:37.296, True, 2.321, 0.139544
2023/06/19 10:01:37.800, True, 2.321, 0.140154
2023/06/19 10:01:38.296, True, 2.359, 0.139620
2023/06/19 10:01:38.800, True, 1.990, 0.140078
2023/06/19 10:01:39.304, True, 2.321, 0.141299
2023/06/19 10:01:39.800, True, 2.359, 0.137713
2023/06/19 10:01:40.304, True, 2.652, 0.139086
2023/06/19 10:01:40.808, True, 1.990, 0.138094
2023/06/19 10:01:41.304, True, 2.358, 0.136873
2023/06/19 10:01:41.808, True, 2.322, 0.137713
2023/06/19 10:01:42.312, True, 2.321, 0.139086
2023/06/19 10:01:42.808, True, 2.360, 0.138705
2023/06/19 10:01:43.312, True, 2.319, 0.139544
2023/06/19 10:01:43.816, True, 2.322, 0.138552
2023/06/19 10:01:44.312, True, 2.359, 0.138476
2023/06/19 10:01:44.816, True, 2.321, 0.138781
2023/06/19 10:01:45.320, True, 2.653, 0.138857
2023/06/19 10:01:45.824, True, 1.990, 0.139544
2023/06/19 10:01:46.320, True, 2.359, 0.140230
2023/06/19 10:01:46.824, True, 2.323, 0.137407
2023/06/19 10:01:47.328, True, 2.320, 0.139010
2023/06/19 10:01:47.824, True, 2.358, 0.137636
2023/06/19 10:01:48.328, True, 2.321, 0.140993
2023/06/19 10:01:48.824, True, 2.359, 0.141680
2023/06/19 10:01:49.328, True, 2.321, 0.139544
2023/06/19 10:01:49.832, True, 2.321, 0.138323
2023/06/19 10:01:50.336, True, 2.321, 0.139086
2023/06/19 10:01:50.832, True, 2.359, 0.138628
2023/06/19 10:01:51.336, True, 2.321, 0.139086
2023/06/19 10:01:51.840, True, 2.654, 0.138170
2023/06/19 10:01:52.335, True, 2.358, 0.136645
2023/06/19 10:01:52.840, True, 2.320, 0.138857
2023/06/19 10:01:53.344, True, 2.322, 0.139162
2023/06/19 10:01:53.840, True, 2.358, 0.137942
2023/06/19 10:01:54.344, True, 2.322, 0.138705
2023/06/19 10:01:54.848, True, 2.321, 0.138705
2023/06/19 10:01:55.344, True, 2.359, 0.138323
2023/06/19 10:01:55.848, True, 2.321, 0.139162
2023/06/19 10:01:56.352, True, 1.990, 0.137560
2023/06/19 10:01:56.848, True, 2.358, 0.137789
2023/06/19 10:01:57.352, True, 2.321, 0.137255
2023/06/19 10:01:57.856, True, 2.321, 0.139773
2023/06/19 10:01:58.352, True, 2.359, 0.139086
2023/06/19 10:01:58.856, True, 2.322, 0.139544
2023/06/19 10:01:59.359, True, 2.651, 0.137331
2023/06/19 10:01:59.856, True, 2.022, 0.139696
2023/06/19 10:02:00.360, True, 2.321, 0.138933
2023/06/19 10:02:00.856, True, 2.359, 0.137560
2023/06/19 10:02:01.360, True, 2.321, 0.138933
2023/06/19 10:02:01.864, True, 1.990, 0.139620
2023/06/19 10:02:02.368, True, 2.324, 0.137560
2023/06/19 10:02:02.864, True, 2.019, 0.140764
2023/06/19 10:02:03.368, True, 2.321, 0.139315
2023/06/19 10:02:03.872, True, 2.653, 0.139467
2023/06/19 10:02:04.368, True, 2.359, 0.138476
2023/06/19 10:02:04.871, True, 2.321, 0.139696
2023/06/19 10:02:05.376, True, 2.321, 0.138399
2023/06/19 10:02:05.872, True, 2.360, 0.137865
2023/06/19 10:02:06.375, True, 2.319, 0.139544
2023/06/19 10:02:06.879, True, 2.322, 0.137484
2023/06/19 10:02:07.383, True, 2.321, 0.137484
2023/06/19 10:02:07.879, True, 2.359, 0.139315
2023/06/19 10:02:08.383, True, 2.321, 0.136492
2023/06/19 10:02:08.887, True, 2.322, 0.137636
2023/06/19 10:02:09.383, True, 2.359, 0.137407
2023/06/19 10:02:09.887, True, 2.321, 0.137560
2023/06/19 10:02:10.391, True, 2.321, 0.137865
2023/06/19 10:02:10.888, True, 2.358, 0.138705
2023/06/19 10:02:11.391, True, 2.321, 0.137179
2023/06/19 10:02:11.896, True, 2.322, 0.138857
2023/06/19 10:02:12.392, True, 2.358, 0.139239
2023/06/19 10:02:12.896, True, 2.322, 0.138399
2023/06/19 10:02:13.391, True, 2.358, 0.136339
2023/06/19 10:02:13.895, True, 2.322, 0.138628
2023/06/19 10:02:14.399, True, 2.323, 0.138247
2023/06/19 10:02:14.904, True, 2.322, 0.137255
2023/06/19 10:02:15.400, True, 2.356, 0.138323
2023/06/19 10:02:15.904, True, 2.322, 0.136568
2023/06/19 10:02:16.407, True, 2.323, 0.136721
2023/06/19 10:02:16.904, True, 2.359, 0.136339
2023/06/19 10:02:17.407, True, 2.321, 0.133745
2023/06/19 10:02:17.911, True, 2.320, 0.139086
2023/06/19 10:02:18.408, True, 2.359, 0.137636
2023/06/19 10:02:18.912, True, 2.319, 0.136721
2023/06/19 10:02:19.416, True, 2.324, 0.137560
2023/06/19 10:02:19.911, True, 2.359, 0.137331
2023/06/19 10:02:20.416, True, 2.321, 0.137179
2023/06/19 10:02:20.920, True, 2.318, 0.135119
2023/06/19 10:02:21.423, True, 2.323, 0.138170
2023/06/19 10:02:21.919, True, 2.358, 0.137026
2023/06/19 10:02:22.424, True, 2.657, 0.137713
2023/06/19 10:02:22.928, True, 2.317, 0.136873
2023/06/19 10:02:23.424, True, 2.363, 0.138247
2023/06/19 10:02:23.928, True, 2.317, 0.136645
2023/06/19 10:02:24.432, True, 2.322, 0.135195
2023/06/19 10:02:24.928, True, 2.359, 0.136797
2023/06/19 10:02:25.432, True, 2.321, 0.137026
2023/06/19 10:02:25.936, True, 2.321, 0.138552
2023/06/19 10:02:26.432, True, 2.359, 0.135653
2023/06/19 10:02:26.936, True, 2.325, 0.136645
2023/06/19 10:02:27.440, True, 1.986, 0.136797
2023/06/19 10:02:27.936, True, 2.359, 0.137865
2023/06/19 10:02:28.440, True, 2.321, 0.134890
2023/06/19 10:02:28.943, True, 2.321, 0.138094
2023/06/19 10:02:29.439, True, 2.359, 0.136568
2023/06/19 10:02:29.944, True, 2.321, 0.137484
2023/06/19 10:02:30.440, True, 2.359, 0.135729
2023/06/19 10:02:30.944, True, 2.321, 0.136797
2023/06/19 10:02:31.448, True, 2.321, 0.137560
2023/06/19 10:02:31.943, True, 2.359, 0.137636
2023/06/19 10:02:32.447, True, 1.989, 0.135882
2023/06/19 10:02:32.952, True, 2.321, 0.135500
2023/06/19 10:02:33.448, True, 2.024, 0.137560
2023/06/19 10:02:33.952, True, 2.319, 0.139925
2023/06/19 10:02:34.456, True, 2.321, 0.137255
2023/06/19 10:02:34.960, True, 2.321, 0.138705
2023/06/19 10:02:35.455, True, 2.362, 0.135195
2023/06/19 10:02:35.959, True, 2.318, 0.134890
2023/06/19 10:02:36.464, True, 2.321, 0.135729
2023/06/19 10:02:36.960, True, 2.361, 0.136950
2023/06/19 10:02:37.464, True, 1.987, 0.138094
2023/06/19 10:02:37.968, True, 2.321, 0.137179
2023/06/19 10:02:38.464, True, 2.358, 0.134432
2023/06/19 10:02:38.968, True, 2.321, 0.136797
2023/06/19 10:02:39.471, True, 2.321, 0.136339
2023/06/19 10:02:39.968, True, 2.359, 0.135119
2023/06/19 10:02:40.471, True, 2.324, 0.136568
2023/06/19 10:02:40.976, True, 2.319, 0.137331
2023/06/19 10:02:41.471, True, 2.363, 0.134051
2023/06/19 10:02:41.976, True, 2.317, 0.135500
2023/06/19 10:02:42.480, True, 2.324, 0.136797
2023/06/19 10:02:42.976, True, 2.357, 0.135882
2023/06/19 10:02:43.480, True, 2.320, 0.136110
2023/06/19 10:02:43.984, True, 2.321, 0.134279
2023/06/19 10:02:44.479, True, 2.359, 0.135576
2023/06/19 10:02:44.983, True, 2.322, 0.135500
2023/06/19 10:02:45.487, True, 2.320, 0.137636
2023/06/19 10:02:45.984, True, 2.359, 0.137865
2023/06/19 10:02:46.488, True, 2.320, 0.136339
2023/06/19 10:02:46.992, True, 1.990, 0.136263
2023/06/19 10:02:47.488, True, 2.360, 0.136187
2023/06/19 10:02:47.992, True, 2.324, 0.135576
2023/06/19 10:02:48.496, True, 2.317, 0.137331
2023/06/19 10:02:48.992, True, 2.363, 0.132982
2023/06/19 10:02:49.496, True, 2.317, 0.136416
2023/06/19 10:02:49.000, True, 2.322, 0.133593
2023/06/19 10:02:50.495, True, 2.358, 0.136568
2023/06/19 10:02:50.000, True, 2.321, 0.133745
2023/06/19 10:02:51.504, True, 2.321, 0.135882
2023/06/19 10:02:51.000, True, 2.359, 0.135271
2023/06/19 10:02:52.504, True, 2.321, 0.134813
2023/06/19 10:02:53.008, True, 2.321, 0.136416
2023/06/19 10:02:53.503, True, 2.359, 0.134508
2023/06/19 10:02:54.008, True, 2.321, 0.136110
2023/06/19 10:02:54.504, True, 2.359, 0.135500
2023/06/19 10:02:55.007, True, 1.989, 0.135653
2023/06/19 10:02:55.512, True, 2.321, 0.135576
2023/06/19 10:02:56.008, True, 2.359, 0.137713
2023/06/19 10:02:56.512, True, 2.321, 0.135119
2023/06/19 10:02:57.015, True, 2.321, 0.133974
2023/06/19 10:02:57.511, True, 2.358, 0.135271
2023/06/19 10:02:58.016, True, 2.321, 0.134508
2023/06/19 10:02:58.519, True, 2.322, 0.135805
2023/06/19 10:02:59.024, True, 2.321, 0.134661
2023/06/19 10:02:59.520, True, 2.022, 0.136034
2023/06/19 10:03:00.023, True, 2.322, 0.137255
2023/06/19 10:03:00.528, True, 2.321, 0.133974
2023/06/19 10:03:01.023, True, 2.696, 0.136568
2023/06/19 10:03:01.527, True, 2.321, 0.136568
2023/06/19 10:03:02.024, True, 2.359, 0.134127
2023/06/19 10:03:02.527, True, 2.321, 0.135729
2023/06/19 10:03:03.032, True, 2.321, 0.134890
2023/06/19 10:03:03.527, True, 2.358, 0.135729
2023/06/19 10:03:04.032, True, 2.321, 0.136187
2023/06/19 10:03:04.535, True, 2.321, 0.135958
2023/06/19 10:03:05.040, True, 2.321, 0.136416
2023/06/19 10:03:05.535, True, 2.022, 0.135958
2023/06/19 10:03:06.039, True, 2.324, 0.135271
2023/06/19 10:03:06.543, True, 2.319, 0.134356
2023/06/19 10:03:07.040, True, 2.359, 0.135576
2023/06/19 10:03:07.544, True, 2.653, 0.136263
2023/06/19 10:03:08.040, True, 2.360, 0.135958
2023/06/19 10:03:08.544, True, 2.320, 0.136492
2023/06/19 10:03:09.047, True, 2.322, 0.134585
2023/06/19 10:03:09.544, True, 2.358, 0.134890
2023/06/19 10:03:10.048, True, 2.321, 0.135424
2023/06/19 10:03:10.551, True, 2.321, 0.132372
2023/06/19 10:03:11.055, True, 1.990, 0.135348
2023/06/19 10:03:11.551, True, 2.358, 0.136187
2023/06/19 10:03:12.055, True, 2.323, 0.136263
2023/06/19 10:03:12.552, True, 2.358, 0.136721
2023/06/19 10:03:13.055, True, 2.322, 0.134813
2023/06/19 10:03:13.559, True, 2.320, 0.134661
2023/06/19 10:03:14.056, True, 2.359, 0.136721
2023/06/19 10:03:14.560, True, 2.322, 0.135195
2023/06/19 10:03:15.063, True, 2.321, 0.134279
2023/06/19 10:03:15.559, True, 2.359, 0.136263
2023/06/19 10:03:16.063, True, 2.321, 0.133669
2023/06/19 10:03:16.567, True, 2.322, 0.134508
2023/06/19 10:03:17.063, True, 2.358, 0.132677
2023/06/19 10:03:17.568, True, 2.321, 0.135424
2023/06/19 10:03:18.071, True, 2.321, 0.134813
2023/06/19 10:03:18.568, True, 2.359, 0.135729
2023/06/19 10:03:19.071, True, 2.322, 0.135729
2023/06/19 10:03:19.575, True, 2.321, 0.136187
2023/06/19 10:03:20.071, True, 2.358, 0.137331
2023/06/19 10:03:20.575, True, 2.321, 0.132982
2023/06/19 10:03:21.080, True, 1.991, 0.134356
2023/06/19 10:03:21.575, True, 2.358, 0.134508
2023/06/19 10:03:22.079, True, 2.322, 0.132906
2023/06/19 10:03:22.584, True, 2.319, 0.133822
2023/06/19 10:03:23.079, True, 2.359, 0.134203
2023/06/19 10:03:23.583, True, 2.321, 0.136568
2023/06/19 10:03:24.087, True, 2.322, 0.135119
2023/06/19 10:03:24.592, True, 2.321, 0.134051
2023/06/19 10:03:25.087, True, 2.363, 0.135500
2023/06/19 10:03:25.592, True, 2.318, 0.133669
2023/06/19 10:03:26.087, True, 2.358, 0.135805
2023/06/19 10:03:26.592, True, 2.322, 0.133822
2023/06/19 10:03:27.095, True, 2.322, 0.135500
2023/06/19 10:03:27.600, True, 2.319, 0.136110
2023/06/19 10:03:28.095, True, 2.359, 0.135424
2023/06/19 10:03:28.599, True, 2.321, 0.133288
2023/06/19 10:03:29.103, True, 2.321, 0.135805
2023/06/19 10:03:29.600, True, 2.359, 0.134813
2023/06/19 10:03:30.103, True, 2.322, 0.136034
2023/06/19 10:03:30.608, True, 2.320, 0.134203
2023/06/19 10:03:31.103, True, 2.361, 0.134966
2023/06/19 10:03:31.608, True, 2.320, 0.134661
2023/06/19 10:03:32.111, True, 1.990, 0.134813
2023/06/19 10:03:32.607, True, 2.358, 0.137407
2023/06/19 10:03:33.111, True, 2.321, 0.134966
2023/06/19 10:03:33.615, True, 2.324, 0.134508
2023/06/19 10:03:34.111, True, 2.355, 0.134966
2023/06/19 10:03:34.616, True, 2.321, 0.136187
2023/06/19 10:03:35.111, True, 2.359, 0.135958
2023/06/19 10:03:35.615, True, 2.321, 0.134203
2023/06/19 10:03:36.119, True, 2.322, 0.134203
2023/06/19 10:03:36.615, True, 2.358, 0.134508
2023/06/19 10:03:37.119, True, 2.321, 0.134356
2023/06/19 10:03:37.623, True, 2.322, 0.135500
2023/06/19 10:03:38.127, True, 2.324, 0.134127
2023/06/19 10:03:38.623, True, 2.355, 0.134432
2023/06/19 10:03:39.127, True, 2.323, 0.134585
2023/06/19 10:03:39.631, True, 2.320, 0.134432
2023/06/19 10:03:40.128, True, 2.359, 0.133898
2023/06/19 10:03:40.631, True, 2.321, 0.135729
2023/06/19 10:03:41.135, True, 2.321, 0.133059
2023/06/19 10:03:41.639, True, 1.991, 0.134737
2023/06/19 10:03:42.135, True, 2.359, 0.135271
2023/06/19 10:03:42.639, True, 2.322, 0.136187
2023/06/19 10:03:43.143, True, 2.321, 0.134279
2023/06/19 10:03:43.639, True, 2.358, 0.134966
2023/06/19 10:03:44.143, True, 2.321, 0.132906
2023/06/19 10:03:44.639, True, 2.356, 0.133593
2023/06/19 10:03:45.143, True, 2.325, 0.135119
2023/06/19 10:03:45.647, True, 2.318, 0.135958
2023/06/19 10:03:46.143, True, 2.362, 0.132753
2023/06/19 10:03:46.647, True, 2.322, 0.133974
2023/06/19 10:03:47.151, True, 2.321, 0.134203
2023/06/19 10:03:47.655, True, 1.990, 0.135958
2023/06/19 10:03:48.151, True, 2.359, 0.132448
2023/06/19 10:03:48.655, True, 2.321, 0.136263
2023/06/19 10:03:49.159, True, 2.322, 0.136034
2023/06/19 10:03:49.655, True, 2.358, 0.135424
2023/06/19 10:03:50.159, True, 2.318, 0.134890
2023/06/19 10:03:50.662, True, 2.326, 0.132906
2023/06/19 10:03:51.167, True, 2.317, 0.134203
2023/06/19 10:03:51.663, True, 2.021, 0.133593
2023/06/19 10:03:52.167, True, 2.322, 0.134508
2023/06/19 10:03:52.663, True, 2.358, 0.133211
2023/06/19 10:03:53.167, True, 2.322, 0.134203
2023/06/19 10:03:53.671, True, 1.989, 0.132601
2023/06/19 10:03:54.175, True, 2.324, 0.134813
2023/06/19 10:03:54.671, True, 2.357, 0.134279
2023/06/19 10:03:55.175, True, 2.322, 0.135576
2023/06/19 10:03:55.679, True, 2.320, 0.133669
2023/06/19 10:03:56.175, True, 2.362, 0.134661
2023/06/19 10:03:56.679, True, 2.318, 0.134356
2023/06/19 10:03:57.183, True, 2.322, 0.132830
2023/06/19 10:03:57.679, True, 2.358, 0.133440
2023/06/19 10:03:58.183, True, 2.321, 0.134432
2023/06/19 10:03:58.687, True, 2.321, 0.134585
2023/06/19 10:03:59.183, True, 2.359, 0.135271
2023/06/19 10:03:59.687, True, 2.320, 0.134890
2023/06/19 10:04:00.191, True, 2.321, 0.134203
2023/06/19 10:04:00.695, True, 2.321, 0.134737
2023/06/19 10:04:01.191, True, 2.022, 0.135653
2023/06/19 10:04:01.695, True, 2.321, 0.133593
2023/06/19 10:04:02.199, True, 2.324, 0.132525
2023/06/19 10:04:02.695, True, 2.356, 0.134356
2023/06/19 10:04:03.199, True, 2.322, 0.134356
2023/06/19 10:04:03.703, True, 1.989, 0.134966
2023/06/19 10:04:04.199, True, 2.358, 0.132982
2023/06/19 10:04:04.703, True, 2.322, 0.133822
2023/06/19 10:04:05.207, True, 2.321, 0.130007
2023/06/19 10:04:05.704, True, 2.022, 0.133135
2023/06/19 10:04:06.207, True, 2.321, 0.134585
2023/06/19 10:04:06.711, True, 1.990, 0.134432
2023/06/19 10:04:07.207, True, 2.021, 0.135271
2023/06/19 10:04:07.711, True, 2.325, 0.135348
2023/06/19 10:04:08.215, True, 1.986, 0.132677
2023/06/19 10:04:08.711, True, 2.361, 0.135882
2023/06/19 10:04:09.215, True, 2.320, 0.134127
2023/06/19 10:04:09.719, True, 2.323, 0.135500
2023/06/19 10:04:10.216, True, 2.357, 0.133822
2023/06/19 10:04:10.719, True, 2.321, 0.132296
2023/06/19 10:04:11.223, True, 2.321, 0.133440
2023/06/19 10:04:11.719, True, 2.359, 0.134279